Wetterdaten: aktuell Freitag, 18.10.2019 10:44
Datum Zeit Temp. I. Temp. 2m Temp. 5cm LF I. Luftdruck Regen Wind Richtung Richtung Taupunkt Windchill Windben
18.10.2019 10:44 14,8 C 11,9 C 10,5 C 65 % 1018,3 hPa 0,0 l/m 0,2 km/h (0 Bft) SW 225 -21,3 C 11,9 C 0,0 km/h (0 Bft)
18.10.2019 10:42 14,8 C 11,8 C 10,5 C 64 % 1018,3 hPa 0,0 l/m 0,2 km/h (0 Bft) W-SW 247 -21,3 C 11,8 C 0,0 km/h (0 Bft)
18.10.2019 10:40 14,8 C 11,6 C 10,4 C 64 % 1018,4 hPa 0,0 l/m 0,0 km/h (0 Bft) SW 225 -21,5 C 11,6 C 2,7 km/h (1 Bft)
18.10.2019 10:38 14,8 C 11,5 C 10,4 C 64 % 1018,4 hPa 0,0 l/m 0,0 km/h (0 Bft) N-NO 22 -21,6 C 11,5 C 0,0 km/h (0 Bft)
18.10.2019 10:36 14,8 C 11,4 C 10,4 C 64 % 1018,4 hPa 0,0 l/m 0,0 km/h (0 Bft) N-NW 337 -21,6 C 11,4 C 0,0 km/h (0 Bft)
18.10.2019 10:34 14,8 C 11,3 C 10,1 C 64 % 1018,4 hPa 0,0 l/m 0,0 km/h (0 Bft) SW 225 -21,7 C 11,3 C 0,0 km/h (0 Bft)
18.10.2019 10:32 14,8 C 11,2 C 10,0 C 64 % 1018,4 hPa 0,0 l/m 0,0 km/h (0 Bft) O-SO 112 -21,8 C 11,2 C 0,0 km/h (0 Bft)
18.10.2019 10:30 14,8 C 11,0 C 9,9 C 65 % 1018,4 hPa 0,0 l/m 0,0 km/h (0 Bft) NW 315 -21,9 C 11,0 C 0,0 km/h (0 Bft)
18.10.2019 10:28 14,8 C 10,8 C 9,9 C 64 % 1018,4 hPa 0,0 l/m 0,0 km/h (0 Bft) NO 45 -22,1 C 10,8 C 0,0 km/h (0 Bft)
18.10.2019 10:26 14,8 C 10,5 C 9,9 C 65 % 1018,4 hPa 0,0 l/m 0,0 km/h (0 Bft) S 180 -22,3 C 10,5 C 0,0 km/h (0 Bft)
18.10.2019 10:24 14,8 C 10,4 C 9,7 C 64 % 1018,4 hPa 0,0 l/m 0,0 km/h (0 Bft) S 180 -22,4 C 10,4 C 0,0 km/h (0 Bft)
18.10.2019 10:22 14,8 C 10,2 C 9,7 C 64 % 1018,4 hPa 0,0 l/m 0,0 km/h (0 Bft) SW 225 -22,5 C 10,2 C 0,0 km/h (0 Bft)
18.10.2019 10:20 14,8 C 10,2 C 9,7 C 64 % 1018,4 hPa 0,0 l/m 0,0 km/h (0 Bft) SO 135 -22,5 C 10,2 C 0,0 km/h (0 Bft)
18.10.2019 10:18 14,8 C 10,2 C 9,7 C 65 % 1018,4 hPa 0,0 l/m 0,0 km/h (0 Bft) SO 135 -22,5 C 10,2 C 0,0 km/h (0 Bft)
18.10.2019 10:16 14,8 C 10,1 C 9,5 C 64 % 1018,4 hPa 0,0 l/m 0,0 km/h (0 Bft) SO 135 -22,6 C 10,1 C 0,0 km/h (0 Bft)
18.10.2019 10:14 14,8 C 9,9 C 9,4 C 64 % 1018,4 hPa 0,0 l/m 0,0 km/h (0 Bft) SO 135 -22,8 C 9,9 C 0,0 km/h (0 Bft)
18.10.2019 10:12 14,8 C 10,0 C 9,5 C 64 % 1018,4 hPa 0,0 l/m 0,0 km/h (0 Bft) N-NO 22 -22,7 C 10,0 C 0,0 km/h (0 Bft)
18.10.2019 10:10 14,8 C 10,2 C 9,2 C 64 % 1018,4 hPa 0,0 l/m 0,0 km/h (0 Bft) SO 135 -22,5 C 10,2 C 0,0 km/h (0 Bft)
18.10.2019 10:08 14,8 C 10,1 C 9,0 C 64 % 1018,4 hPa 0,0 l/m 0,0 km/h (0 Bft) W-NW 292 -22,6 C 10,1 C 0,0 km/h (0 Bft)
18.10.2019 10:06 14,8 C 10,0 C 9,1 C 64 % 1018,4 hPa 0,0 l/m 0,2 km/h (0 Bft) SO 135 -22,7 C 10,0 C 0,0 km/h (0 Bft)
18.10.2019 10:04 14,8 C 10,1 C 9,1 C 64 % 1018,4 hPa 0,0 l/m 0,2 km/h (0 Bft) S 180 -22,6 C 10,1 C 0,0 km/h (0 Bft)
18.10.2019 10:02 14,8 C 10,0 C 9,1 C 64 % 1018,4 hPa 0,0 l/m 0,2 km/h (0 Bft) NW 315 -22,7 C 10,0 C 0,0 km/h (0 Bft)
18.10.2019 10:00 14,8 C 9,8 C 9,1 C 64 % 1018,6 hPa 0,0 l/m 0,2 km/h (0 Bft) O-SO 112 -22,8 C 9,8 C 0,0 km/h (0 Bft)
18.10.2019 09:58 14,8 C 9,8 C 9,0 C 65 % 1018,6 hPa 0,0 l/m 0,2 km/h (0 Bft) SW 225 -22,8 C 9,8 C 3,4 km/h (1 Bft)
18.10.2019 09:56 14,8 C 9,8 C 8,9 C 64 % 1018,6 hPa 0,0 l/m 0,2 km/h (0 Bft) S-SW 202 -22,8 C 9,8 C 3,6 km/h (1 Bft)
18.10.2019 09:54 14,8 C 9,6 C 8,9 C 64 % 1018,6 hPa 0,0 l/m 0,0 km/h (0 Bft) N-NO 22 -23,0 C 9,6 C 0,0 km/h (0 Bft)
18.10.2019 09:52 14,8 C 9,3 C 8,9 C 64 % 1018,6 hPa 0,0 l/m 0,0 km/h (0 Bft) NO 45 -23,2 C 9,3 C 0,0 km/h (0 Bft)
18.10.2019 09:50 14,8 C 9,3 C 8,8 C 64 % 1018,6 hPa 0,0 l/m 0,0 km/h (0 Bft) W 270 -23,2 C 9,3 C 0,0 km/h (0 Bft)
18.10.2019 09:48 14,8 C 9,1 C 8,7 C 64 % 1018,6 hPa 0,0 l/m 0,0 km/h (0 Bft) O-SO 112 -23,4 C 9,1 C 0,0 km/h (0 Bft)
18.10.2019 09:46 14,8 C 9,0 C 8,7 C 64 % 1018,6 hPa 0,0 l/m 0,0 km/h (0 Bft) N-NO 22 -23,4 C 9,0 C 0,0 km/h (0 Bft)
18.10.2019 09:44 14,8 C 8,9 C 8,6 C 64 % 1018,6 hPa 0,0 l/m 0,0 km/h (0 Bft) NO 45 -23,5 C 8,9 C 0,0 km/h (0 Bft)
18.10.2019 09:42 14,8 C 8,7 C 8,5 C 64 % 1018,6 hPa 0,0 l/m 0,0 km/h (0 Bft) O-NO 67 -23,7 C 8,7 C 0,0 km/h (0 Bft)
18.10.2019 09:40 14,8 C 8,6 C 8,4 C 65 % 1018,5 hPa 0,0 l/m 0,0 km/h (0 Bft) S 180 -23,7 C 8,6 C 0,0 km/h (0 Bft)
18.10.2019 09:38 14,8 C 8,4 C 8,3 C 64 % 1018,5 hPa 0,0 l/m 0,0 km/h (0 Bft) N-NO 22 -23,9 C 8,4 C 0,0 km/h (0 Bft)
18.10.2019 09:36 14,8 C 8,2 C 8,0 C 64 % 1018,5 hPa 0,0 l/m 0,0 km/h (0 Bft) N-NO 22 -24,0 C 8,2 C 0,0 km/h (0 Bft)
18.10.2019 09:34 14,8 C 7,9 C 7,9 C 64 % 1018,5 hPa 0,0 l/m 0,0 km/h (0 Bft) NO 45 -24,3 C 7,9 C 0,0 km/h (0 Bft)
18.10.2019 09:32 14,8 C 7,8 C 8,0 C 64 % 1018,5 hPa 0,0 l/m 0,0 km/h (0 Bft) N 360 -24,3 C 7,8 C 0,0 km/h (0 Bft)
18.10.2019 09:30 14,8 C 7,7 C 8,0 C 64 % 1018,5 hPa 0,0 l/m 0,0 km/h (0 Bft) W-SW 247 -24,4 C 7,7 C 0,0 km/h (0 Bft)
18.10.2019 09:28 14,8 C 7,7 C 8,0 C 65 % 1018,5 hPa 0,0 l/m 0,0 km/h (0 Bft) W-SW 247 -24,4 C 7,7 C 0,0 km/h (0 Bft)
18.10.2019 09:26 14,8 C 7,6 C 7,9 C 64 % 1018,5 hPa 0,0 l/m 0,0 km/h (0 Bft) O-NO 67 -24,5 C 7,6 C 0,0 km/h (0 Bft)
18.10.2019 09:24 14,8 C 7,5 C 7,9 C 64 % 1018,5 hPa 0,0 l/m 0,0 km/h (0 Bft) N-NO 22 -24,6 C 7,5 C 0,0 km/h (0 Bft)
18.10.2019 09:22 14,8 C 7,3 C 7,7 C 64 % 1018,5 hPa 0,0 l/m 0,0 km/h (0 Bft) NW 315 -24,7 C 7,3 C 0,0 km/h (0 Bft)
18.10.2019 09:20 14,8 C 7,2 C 7,5 C 64 % 1018,3 hPa 0,0 l/m 0,0 km/h (0 Bft) S 180 -24,8 C 7,2 C 0,0 km/h (0 Bft)
18.10.2019 09:18 14,8 C 7,1 C 7,6 C 64 % 1018,3 hPa 0,0 l/m 0,0 km/h (0 Bft) S 180 -24,9 C 7,1 C 0,0 km/h (0 Bft)
18.10.2019 09:16 14,8 C 7,0 C 7,5 C 64 % 1018,3 hPa 0,0 l/m 0,0 km/h (0 Bft) W-SW 247 -24,9 C 7,0 C 0,0 km/h (0 Bft)
18.10.2019 09:14 14,8 C 6,8 C 7,5 C 64 % 1018,3 hPa 0,0 l/m 0,0 km/h (0 Bft) W-SW 247 -25,1 C 6,8 C 0,0 km/h (0 Bft)
18.10.2019 09:12 14,8 C 6,7 C 7,5 C 64 % 1018,3 hPa 0,0 l/m 0,0 km/h (0 Bft) S-SW 202 -25,2 C 6,7 C 0,0 km/h (0 Bft)
18.10.2019 09:10 14,8 C 6,5 C 7,5 C 65 % 1018,3 hPa 0,0 l/m 0,0 km/h (0 Bft) SW 225 -25,3 C 6,5 C 0,0 km/h (0 Bft)
18.10.2019 09:08 14,8 C 6,3 C 7,3 C 64 % 1018,3 hPa 0,0 l/m 0,0 km/h (0 Bft) S 180 -25,5 C 6,3 C 0,0 km/h (0 Bft)
18.10.2019 09:06 14,8 C 6,3 C 7,1 C 64 % 1018,3 hPa 0,0 l/m 0,0 km/h (0 Bft) S 180 -25,5 C 6,3 C 0,0 km/h (0 Bft)
18.10.2019 09:04 14,8 C 6,2 C 6,8 C 64 % 1018,3 hPa 0,0 l/m 0,0 km/h (0 Bft) S-SW 202 -25,6 C 6,2 C 0,0 km/h (0 Bft)
18.10.2019 09:02 14,8 C 6,1 C 6,7 C 65 % 1018,3 hPa 0,0 l/m 0,0 km/h (0 Bft) S-SO 157 -25,6 C 6,1 C 0,0 km/h (0 Bft)
18.10.2019 09:00 14,8 C 6,0 C 7,0 C 64 % 1018,1 hPa 0,0 l/m 0,0 km/h (0 Bft) S-SO 157 -25,7 C 6,0 C 0,0 km/h (0 Bft)
18.10.2019 08:58 14,8 C 6,0 C 7,2 C 64 % 1018,1 hPa 0,0 l/m 0,2 km/h (0 Bft) W-SW 247 -25,7 C 6,0 C 0,0 km/h (0 Bft)
18.10.2019 08:56 14,8 C 6,1 C 7,2 C 64 % 1018,1 hPa 0,0 l/m 0,2 km/h (0 Bft) S-SW 202 -25,6 C 6,1 C 0,0 km/h (0 Bft)
18.10.2019 08:54 14,8 C 6,1 C 7,0 C 64 % 1018,1 hPa 0,0 l/m 0,3 km/h (0 Bft) SW 225 -25,6 C 6,1 C 0,0 km/h (0 Bft)
18.10.2019 08:52 14,8 C 6,0 C 6,7 C 64 % 1018,1 hPa 0,0 l/m 0,3 km/h (0 Bft) S-SW 202 -25,7 C 6,0 C 0,0 km/h (0 Bft)
18.10.2019 08:50 14,8 C 5,9 C 6,7 C 65 % 1018,1 hPa 0,0 l/m 0,3 km/h (0 Bft) SW 225 -25,8 C 5,9 C 0,0 km/h (0 Bft)
18.10.2019 08:48 14,8 C 5,9 C 6,6 C 64 % 1018,1 hPa 0,0 l/m 0,5 km/h (0 Bft) SW 225 -25,8 C 5,9 C 2,4 km/h (1 Bft)
18.10.2019 08:46 14,8 C 5,9 C 6,5 C 65 % 1018,1 hPa 0,0 l/m 0,6 km/h (0 Bft) S-SW 202 -25,8 C 5,9 C 3,9 km/h (1 Bft)
18.10.2019 08:44 14,8 C 5,8 C 6,3 C 64 % 1018,1 hPa 0,0 l/m 1,0 km/h (0 Bft) S-SO 157 -25,9 C 5,8 C 2,9 km/h (1 Bft)
18.10.2019 08:42 14,8 C 5,8 C 6,3 C 64 % 1018,1 hPa 0,0 l/m 1,3 km/h (1 Bft) SW 225 -25,9 C 5,8 C 0,0 km/h (0 Bft)
18.10.2019 08:40 14,8 C 5,7 C 6,1 C 64 % 1018,1 hPa 0,0 l/m 1,3 km/h (1 Bft) S 180 -25,9 C 5,7 C 0,0 km/h (0 Bft)
18.10.2019 08:38 14,8 C 5,7 C 6,1 C 64 % 1018,1 hPa 0,0 l/m 1,4 km/h (1 Bft) S-SO 157 -25,9 C 5,7 C 2,4 km/h (1 Bft)
18.10.2019 08:36 14,8 C 5,6 C 6,0 C 64 % 1018,1 hPa 0,0 l/m 1,1 km/h (1 Bft) SW 225 -26,0 C 5,6 C 3,4 km/h (1 Bft)
18.10.2019 08:34 14,8 C 5,6 C 5,8 C 64 % 1018,1 hPa 0,0 l/m 0,8 km/h (0 Bft) S-SW 202 -26,0 C 5,6 C 2,7 km/h (1 Bft)
18.10.2019 08:32 14,8 C 5,6 C 5,8 C 64 % 1018,1 hPa 0,0 l/m 0,3 km/h (0 Bft) S 180 -26,0 C 5,6 C 2,9 km/h (1 Bft)
18.10.2019 08:30 14,8 C 5,5 C 5,5 C 65 % 1018,1 hPa 0,0 l/m 0,2 km/h (0 Bft) S-SO 157 -26,1 C 5,5 C 2,7 km/h (1 Bft)
18.10.2019 08:28 14,8 C 5,4 C 5,8 C 64 % 1018,1 hPa 0,0 l/m 0,0 km/h (0 Bft) S-SW 202 -26,2 C 5,4 C 0,0 km/h (0 Bft)
18.10.2019 08:26 14,8 C 5,4 C 5,6 C 65 % 1018,1 hPa 0,0 l/m 0,0 km/h (0 Bft) S-SW 202 -26,2 C 5,4 C 0,0 km/h (0 Bft)
18.10.2019 08:24 14,8 C 5,4 C 5,3 C 64 % 1018,1 hPa 0,0 l/m 0,0 km/h (0 Bft) SO 135 -26,2 C 5,4 C 0,0 km/h (0 Bft)
18.10.2019 08:22 14,8 C 5,3 C 5,2 C 64 % 1018,1 hPa 0,0 l/m 0,0 km/h (0 Bft) SW 225 -26,2 C 5,3 C 0,0 km/h (0 Bft)
18.10.2019 08:20 14,8 C 5,3 C 5,2 C 64 % 1018,0 hPa 0,0 l/m 0,0 km/h (0 Bft) S-SW 202 -26,2 C 5,3 C 0,0 km/h (0 Bft)
18.10.2019 08:18 14,8 C 5,3 C 5,2 C 65 % 1018,0 hPa 0,0 l/m 0,0 km/h (0 Bft) N-NO 22 -26,2 C 5,3 C 0,0 km/h (0 Bft)
18.10.2019 08:16 14,8 C 5,3 C 5,0 C 65 % 1018,0 hPa 0,0 l/m 0,0 km/h (0 Bft) S 180 -26,2 C 5,3 C 0,0 km/h (0 Bft)
18.10.2019 08:14 14,8 C 5,3 C 5,0 C 64 % 1018,0 hPa 0,0 l/m 0,0 km/h (0 Bft) S 180 -26,2 C 5,3 C 0,0 km/h (0 Bft)
18.10.2019 08:12 14,8 C 5,2 C 5,0 C 64 % 1018,0 hPa 0,0 l/m 0,0 km/h (0 Bft) S 180 -26,3 C 5,2 C 0,0 km/h (0 Bft)
18.10.2019 08:10 14,8 C 5,2 C 5,2 C 64 % 1018,0 hPa 0,0 l/m 0,0 km/h (0 Bft) S 180 -26,3 C 5,2 C 0,0 km/h (0 Bft)
18.10.2019 08:08 14,8 C 5,2 C 5,4 C 64 % 1018,0 hPa 0,0 l/m 0,2 km/h (0 Bft) S-SW 202 -26,3 C 5,2 C 0,0 km/h (0 Bft)
18.10.2019 08:06 14,8 C 5,2 C 5,1 C 65 % 1018,0 hPa 0,0 l/m 0,2 km/h (0 Bft) SW 225 -26,3 C 5,2 C 0,0 km/h (0 Bft)
18.10.2019 08:04 14,8 C 5,1 C 5,2 C 64 % 1018,0 hPa 0,0 l/m 0,2 km/h (0 Bft) S 180 -26,4 C 5,1 C 0,0 km/h (0 Bft)
18.10.2019 08:02 14,8 C 5,1 C 5,1 C 65 % 1018,0 hPa 0,0 l/m 0,0 km/h (0 Bft) SW 225 -26,4 C 5,1 C 0,0 km/h (0 Bft)
18.10.2019 08:00 14,8 C 5,1 C 5,1 C 64 % 1018,1 hPa 0,0 l/m 0,0 km/h (0 Bft) SW 225 -26,4 C 5,1 C 0,0 km/h (0 Bft)
18.10.2019 07:58 14,8 C 5,1 C 5,2 C 65 % 1018,1 hPa 0,0 l/m 0,0 km/h (0 Bft) S 180 -26,4 C 5,1 C 0,0 km/h (0 Bft)
18.10.2019 07:56 14,8 C 5,1 C 5,2 C 64 % 1018,1 hPa 0,0 l/m 0,0 km/h (0 Bft) SW 225 -26,4 C 5,1 C 0,0 km/h (0 Bft)
18.10.2019 07:54 14,8 C 5,1 C 5,1 C 65 % 1018,1 hPa 0,0 l/m 0,0 km/h (0 Bft) W-SW 247 -26,4 C 5,1 C 0,0 km/h (0 Bft)
18.10.2019 07:52 14,8 C 5,0 C 5,0 C 65 % 1018,1 hPa 0,0 l/m 0,0 km/h (0 Bft) W 270 -26,5 C 5,0 C 0,0 km/h (0 Bft)
18.10.2019 07:50 14,8 C 5,0 C 5,0 C 65 % 1018,1 hPa 0,0 l/m 0,0 km/h (0 Bft) W 270 -26,5 C 5,0 C 0,0 km/h (0 Bft)
18.10.2019 07:48 14,8 C 5,0 C 5,0 C 65 % 1018,1 hPa 0,0 l/m 0,0 km/h (0 Bft) S 180 -26,5 C 5,0 C 0,0 km/h (0 Bft)
18.10.2019 07:46 14,8 C 5,0 C 5,1 C 65 % 1018,1 hPa 0,0 l/m 0,0 km/h (0 Bft) S 180 -26,5 C 5,0 C 0,0 km/h (0 Bft)
18.10.2019 07:44 14,8 C 5,1 C 5,1 C 65 % 1018,1 hPa 0,0 l/m 0,0 km/h (0 Bft) SW 225 -26,4 C 5,1 C 0,0 km/h (0 Bft)
18.10.2019 07:42 14,8 C 5,1 C 4,8 C 65 % 1018,1 hPa 0,0 l/m 0,0 km/h (0 Bft) W-SW 247 -26,4 C 5,1 C 0,0 km/h (0 Bft)
18.10.2019 07:40 14,8 C 5,0 C 4,8 C 65 % 1017,9 hPa 0,0 l/m 0,0 km/h (0 Bft) W-SW 247 -26,5 C 5,0 C 0,0 km/h (0 Bft)
18.10.2019 07:38 14,8 C 5,0 C 5,0 C 65 % 1017,9 hPa 0,0 l/m 0,0 km/h (0 Bft) S 180 -26,5 C 5,0 C 0,0 km/h (0 Bft)
18.10.2019 07:36 14,8 C 5,0 C 4,9 C 65 % 1017,9 hPa 0,0 l/m 0,0 km/h (0 Bft) W-SW 247 -26,5 C 5,0 C 0,0 km/h (0 Bft)
18.10.2019 07:34 14,8 C 5,0 C 5,2 C 65 % 1017,9 hPa 0,0 l/m 0,0 km/h (0 Bft) SW 225 -26,5 C 5,0 C 0,0 km/h (0 Bft)
18.10.2019 07:32 14,9 C 5,1 C 5,2 C 65 % 1017,9 hPa 0,0 l/m 0,0 km/h (0 Bft) SW 225 -26,4 C 5,1 C 0,0 km/h (0 Bft)
18.10.2019 07:30 14,8 C 5,2 C 5,0 C 65 % 1017,9 hPa 0,0 l/m 0,0 km/h (0 Bft) SW 225 -26,3 C 5,2 C 0,0 km/h (0 Bft)
18.10.2019 07:28 14,8 C 5,2 C 4,8 C 65 % 1017,9 hPa 0,0 l/m 0,0 km/h (0 Bft) W-SW 247 -26,3 C 5,2 C 0,0 km/h (0 Bft)
18.10.2019 07:26 14,9 C 5,2 C 4,9 C 65 % 1017,9 hPa 0,0 l/m 0,0 km/h (0 Bft) W-SW 247 -26,3 C 5,2 C 0,0 km/h (0 Bft)
18.10.2019 07:24 14,8 C 5,1 C 4,8 C 65 % 1017,9 hPa 0,0 l/m 0,0 km/h (0 Bft) S 180 -26,4 C 5,1 C 0,0 km/h (0 Bft)
18.10.2019 07:22 14,9 C 5,2 C 4,8 C 65 % 1017,9 hPa 0,0 l/m 0,0 km/h (0 Bft) S-SW 202 -26,3 C 5,2 C 0,0 km/h (0 Bft)
18.10.2019 07:20 14,9 C 5,2 C 4,9 C 65 % 1017,9 hPa 0,0 l/m 0,0 km/h (0 Bft) S 180 -26,3 C 5,2 C 0,0 km/h (0 Bft)
18.10.2019 07:18 14,9 C 5,3 C 5,0 C 65 % 1017,9 hPa 0,0 l/m 0,0 km/h (0 Bft) S-SW 202 -26,2 C 5,3 C 0,0 km/h (0 Bft)
18.10.2019 07:16 14,9 C 5,3 C 5,2 C 65 % 1017,9 hPa 0,0 l/m 0,0 km/h (0 Bft) S-SW 202 -26,2 C 5,3 C 0,0 km/h (0 Bft)
18.10.2019 07:14 14,9 C 5,3 C 5,2 C 65 % 1017,9 hPa 0,0 l/m 0,0 km/h (0 Bft) SW 225 -26,2 C 5,3 C 0,0 km/h (0 Bft)
18.10.2019 07:12 14,9 C 5,3 C 5,3 C 65 % 1017,9 hPa 0,0 l/m 0,0 km/h (0 Bft) W-SW 247 -26,2 C 5,3 C 0,0 km/h (0 Bft)
18.10.2019 07:10 14,9 C 5,3 C 5,3 C 65 % 1017,9 hPa 0,0 l/m 0,0 km/h (0 Bft) W-SW 247 -26,2 C 5,3 C 0,0 km/h (0 Bft)
18.10.2019 07:08 14,9 C 5,3 C 5,0 C 65 % 1017,9 hPa 0,0 l/m 0,0 km/h (0 Bft) W-SW 247 -26,2 C 5,3 C 0,0 km/h (0 Bft)
18.10.2019 07:06 14,8 C 5,3 C 5,0 C 65 % 1017,9 hPa 0,0 l/m 0,0 km/h (0 Bft) S 180 -26,2 C 5,3 C 0,0 km/h (0 Bft)
18.10.2019 07:04 14,9 C 5,3 C 5,3 C 65 % 1017,9 hPa 0,0 l/m 0,0 km/h (0 Bft) SW 225 -26,2 C 5,3 C 0,0 km/h (0 Bft)
18.10.2019 07:02 14,9 C 5,3 C 5,5 C 65 % 1017,9 hPa 0,0 l/m 0,0 km/h (0 Bft) S 180 -26,2 C 5,3 C 0,0 km/h (0 Bft)
18.10.2019 07:00 14,8 C 5,3 C 5,2 C 65 % 1017,9 hPa 0,0 l/m 0,0 km/h (0 Bft) SW 225 -26,2 C 5,3 C 0,0 km/h (0 Bft)
18.10.2019 06:58 14,8 C 5,3 C 5,1 C 65 % 1017,9 hPa 0,0 l/m 0,0 km/h (0 Bft) SW 225 -26,2 C 5,3 C 0,0 km/h (0 Bft)
18.10.2019 06:56 14,8 C 5,3 C 4,9 C 65 % 1017,9 hPa 0,0 l/m 0,0 km/h (0 Bft) SW 225 -26,2 C 5,3 C 0,0 km/h (0 Bft)
18.10.2019 06:54 14,8 C 5,3 C 5,0 C 65 % 1017,9 hPa 0,0 l/m 0,0 km/h (0 Bft) SW 225 -26,2 C 5,3 C 0,0 km/h (0 Bft)
18.10.2019 06:52 14,8 C 5,3 C 5,1 C 65 % 1017,9 hPa 0,0 l/m 0,0 km/h (0 Bft) W-SW 247 -26,2 C 5,3 C 0,0 km/h (0 Bft)
18.10.2019 06:50 14,8 C 5,3 C 5,4 C 65 % 1017,9 hPa 0,0 l/m 0,0 km/h (0 Bft) SW 225 -26,2 C 5,3 C 0,0 km/h (0 Bft)
18.10.2019 06:48 14,8 C 5,3 C 5,2 C 65 % 1017,9 hPa 0,0 l/m 0,0 km/h (0 Bft) S-SW 202 -26,2 C 5,3 C 0,0 km/h (0 Bft)
18.10.2019 06:46 14,8 C 5,3 C 5,3 C 65 % 1017,9 hPa 0,0 l/m 0,0 km/h (0 Bft) SW 225 -26,2 C 5,3 C 2,4 km/h (1 Bft)
18.10.2019 06:44 14,8 C 5,3 C 5,3 C 65 % 1017,9 hPa 0,0 l/m 0,0 km/h (0 Bft) SW 225 -26,2 C 5,3 C 0,0 km/h (0 Bft)
18.10.2019 06:42 14,8 C 5,3 C 5,2 C 65 % 1017,9 hPa 0,0 l/m 0,0 km/h (0 Bft) W 270 -26,2 C 5,3 C 0,0 km/h (0 Bft)
18.10.2019 06:40 14,8 C 5,3 C 5,3 C 65 % 1018,1 hPa 0,0 l/m 0,0 km/h (0 Bft) SW 225 -26,2 C 5,3 C 0,0 km/h (0 Bft)
18.10.2019 06:38 14,8 C 5,3 C 5,4 C 65 % 1018,1 hPa 0,0 l/m 0,0 km/h (0 Bft) W 270 -26,2 C 5,3 C 0,0 km/h (0 Bft)
18.10.2019 06:36 14,8 C 5,3 C 5,5 C 65 % 1018,1 hPa 0,0 l/m 0,0 km/h (0 Bft) N-NO 22 -26,2 C 5,3 C 0,0 km/h (0 Bft)
18.10.2019 06:34 14,8 C 5,3 C 5,4 C 65 % 1018,1 hPa 0,0 l/m 0,0 km/h (0 Bft) W 270 -26,2 C 5,3 C 0,0 km/h (0 Bft)
18.10.2019 06:32 14,8 C 5,4 C 5,3 C 65 % 1018,1 hPa 0,0 l/m 0,0 km/h (0 Bft) SW 225 -26,2 C 5,4 C 0,0 km/h (0 Bft)
18.10.2019 06:30 14,8 C 5,4 C 5,8 C 65 % 1018,1 hPa 0,0 l/m 0,0 km/h (0 Bft) SO 135 -26,2 C 5,4 C 0,0 km/h (0 Bft)
18.10.2019 06:28 14,8 C 5,4 C 5,5 C 65 % 1018,1 hPa 0,0 l/m 0,0 km/h (0 Bft) S-SW 202 -26,2 C 5,4 C 0,0 km/h (0 Bft)
18.10.2019 06:26 14,8 C 5,4 C 5,9 C 65 % 1018,1 hPa 0,0 l/m 0,0 km/h (0 Bft) N-NW 337 -26,2 C 5,4 C 0,0 km/h (0 Bft)
18.10.2019 06:24 14,8 C 5,4 C 5,8 C 65 % 1018,1 hPa 0,0 l/m 0,0 km/h (0 Bft) N 360 -26,2 C 5,4 C 0,0 km/h (0 Bft)
18.10.2019 06:22 14,8 C 5,4 C 5,8 C 65 % 1018,1 hPa 0,0 l/m 0,0 km/h (0 Bft) NW 315 -26,2 C 5,4 C 0,0 km/h (0 Bft)
18.10.2019 06:20 15,0 C 5,4 C 5,6 C 65 % 1018,1 hPa 0,0 l/m 0,0 km/h (0 Bft) S-SW 202 -26,2 C 5,4 C 0,0 km/h (0 Bft)
18.10.2019 06:18 14,8 C 5,5 C 5,9 C 65 % 1018,1 hPa 0,0 l/m 0,0 km/h (0 Bft) S 180 -26,1 C 5,5 C 0,0 km/h (0 Bft)
18.10.2019 06:16 14,8 C 5,5 C 5,9 C 65 % 1018,1 hPa 0,0 l/m 0,0 km/h (0 Bft) SW 225 -26,1 C 5,5 C 0,0 km/h (0 Bft)
18.10.2019 06:14 15,0 C 5,5 C 6,0 C 65 % 1018,1 hPa 0,0 l/m 0,0 km/h (0 Bft) SW 225 -26,1 C 5,5 C 0,0 km/h (0 Bft)
18.10.2019 06:12 14,8 C 5,5 C 5,8 C 65 % 1018,1 hPa 0,0 l/m 0,0 km/h (0 Bft) W 270 -26,1 C 5,5 C 0,0 km/h (0 Bft)
18.10.2019 06:10 14,8 C 5,5 C 5,8 C 65 % 1018,1 hPa 0,0 l/m 0,0 km/h (0 Bft) SW 225 -26,1 C 5,5 C 0,0 km/h (0 Bft)
18.10.2019 06:08 15,0 C 5,5 C 5,6 C 65 % 1018,1 hPa 0,0 l/m 0,0 km/h (0 Bft) SW 225 -26,1 C 5,5 C 0,0 km/h (0 Bft)
18.10.2019 06:06 15,0 C 5,5 C 6,2 C 65 % 1018,1 hPa 0,0 l/m 0,2 km/h (0 Bft) S 180 -26,1 C 5,5 C 0,0 km/h (0 Bft)
18.10.2019 06:04 15,0 C 5,5 C 6,1 C 65 % 1018,1 hPa 0,0 l/m 0,2 km/h (0 Bft) S 180 -26,1 C 5,5 C 0,0 km/h (0 Bft)
18.10.2019 06:02 15,0 C 5,6 C 5,9 C 65 % 1018,1 hPa 0,0 l/m 0,2 km/h (0 Bft) NW 315 -26,0 C 5,6 C 2,4 km/h (1 Bft)
18.10.2019 06:00 15,0 C 5,5 C 5,9 C 65 % 1018,2 hPa 0,0 l/m 0,2 km/h (0 Bft) N-NO 22 -26,1 C 5,5 C 0,0 km/h (0 Bft)
18.10.2019 05:58 15,0 C 5,5 C 5,9 C 65 % 1018,2 hPa 0,0 l/m 0,2 km/h (0 Bft) S-SO 157 -26,1 C 5,5 C 0,0 km/h (0 Bft)
18.10.2019 05:56 15,0 C 5,5 C 5,6 C 65 % 1018,2 hPa 0,0 l/m 0,0 km/h (0 Bft) S-SW 202 -26,1 C 5,5 C 0,0 km/h (0 Bft)
18.10.2019 05:54 15,0 C 5,6 C 5,9 C 65 % 1018,2 hPa 0,0 l/m 0,0 km/h (0 Bft) W 270 -26,0 C 5,6 C 0,0 km/h (0 Bft)
18.10.2019 05:52 15,0 C 5,5 C 5,6 C 65 % 1018,2 hPa 0,0 l/m 0,0 km/h (0 Bft) SW 225 -26,1 C 5,5 C 0,0 km/h (0 Bft)
18.10.2019 05:50 15,0 C 5,6 C 5,6 C 65 % 1018,2 hPa 0,0 l/m 0,0 km/h (0 Bft) SW 225 -26,0 C 5,6 C 0,0 km/h (0 Bft)
18.10.2019 05:48 15,0 C 5,6 C 5,8 C 65 % 1018,2 hPa 0,0 l/m 0,0 km/h (0 Bft) S-SW 202 -26,0 C 5,6 C 2,9 km/h (1 Bft)
18.10.2019 05:46 15,0 C 5,6 C 5,9 C 65 % 1018,2 hPa 0,0 l/m 0,0 km/h (0 Bft) S-SW 202 -26,0 C 5,6 C 0,0 km/h (0 Bft)
18.10.2019 05:44 15,0 C 5,6 C 6,0 C 65 % 1018,2 hPa 0,0 l/m 0,0 km/h (0 Bft) SW 225 -26,0 C 5,6 C 0,0 km/h (0 Bft)
18.10.2019 05:42 15,0 C 5,6 C 6,1 C 65 % 1018,2 hPa 0,0 l/m 0,0 km/h (0 Bft) S-SW 202 -26,0 C 5,6 C 0,0 km/h (0 Bft)
18.10.2019 05:40 15,0 C 5,6 C 6,0 C 65 % 1018,1 hPa 0,0 l/m 0,0 km/h (0 Bft) SW 225 -26,0 C 5,6 C 0,0 km/h (0 Bft)
18.10.2019 05:38 15,0 C 5,6 C 6,2 C 65 % 1018,1 hPa 0,0 l/m 0,0 km/h (0 Bft) N-NO 22 -26,0 C 5,6 C 0,0 km/h (0 Bft)
18.10.2019 05:36 15,0 C 5,6 C 6,0 C 65 % 1018,1 hPa 0,0 l/m 0,0 km/h (0 Bft) S 180 -26,0 C 5,6 C 0,0 km/h (0 Bft)
18.10.2019 05:34 15,0 C 5,7 C 6,3 C 65 % 1018,1 hPa 0,0 l/m 0,0 km/h (0 Bft) S 180 -25,9 C 5,7 C 0,0 km/h (0 Bft)
18.10.2019 05:32 15,0 C 5,7 C 6,1 C 65 % 1018,1 hPa 0,0 l/m 0,2 km/h (0 Bft) NW 315 -25,9 C 5,7 C 0,0 km/h (0 Bft)
18.10.2019 05:30 15,0 C 5,7 C 6,3 C 65 % 1018,1 hPa 0,0 l/m 0,2 km/h (0 Bft) W-SW 247 -25,9 C 5,7 C 0,0 km/h (0 Bft)
18.10.2019 05:28 15,0 C 5,6 C 6,4 C 65 % 1018,1 hPa 0,0 l/m 0,2 km/h (0 Bft) O-SO 112 -26,0 C 5,6 C 0,0 km/h (0 Bft)
18.10.2019 05:26 15,0 C 5,6 C 6,3 C 65 % 1018,1 hPa 0,0 l/m 0,3 km/h (0 Bft) W 270 -26,0 C 5,6 C 0,0 km/h (0 Bft)
18.10.2019 05:24 15,0 C 5,6 C 6,2 C 65 % 1018,1 hPa 0,0 l/m 0,5 km/h (0 Bft) NO 45 -26,0 C 5,6 C 0,0 km/h (0 Bft)
18.10.2019 05:22 15,0 C 5,6 C 5,6 C 65 % 1018,1 hPa 0,0 l/m 0,5 km/h (0 Bft) S-SW 202 -26,0 C 5,6 C 2,7 km/h (1 Bft)
18.10.2019 05:20 15,0 C 5,6 C 6,1 C 65 % 1018,0 hPa 0,0 l/m 0,5 km/h (0 Bft) S 180 -26,0 C 5,6 C 0,0 km/h (0 Bft)
18.10.2019 05:18 15,0 C 5,6 C 6,1 C 65 % 1018,0 hPa 0,0 l/m 0,6 km/h (0 Bft) SW 225 -26,0 C 5,6 C 5,1 km/h (1 Bft)
18.10.2019 05:16 15,0 C 5,6 C 6,1 C 65 % 1018,0 hPa 0,0 l/m 0,8 km/h (0 Bft) W-SW 247 -26,0 C 5,6 C 3,9 km/h (1 Bft)
18.10.2019 05:14 15,0 C 5,6 C 5,9 C 65 % 1018,0 hPa 0,0 l/m 0,5 km/h (0 Bft) S-SW 202 -26,0 C 5,6 C 0,0 km/h (0 Bft)
18.10.2019 05:12 14,9 C 5,7 C 6,2 C 65 % 1018,0 hPa 0,0 l/m 0,5 km/h (0 Bft) S-SO 157 -25,9 C 5,7 C 0,0 km/h (0 Bft)
18.10.2019 05:10 14,9 C 5,6 C 5,8 C 65 % 1018,0 hPa 0,0 l/m 0,5 km/h (0 Bft) SW 225 -26,0 C 5,6 C 4,6 km/h (1 Bft)
18.10.2019 05:08 15,0 C 5,6 C 5,8 C 65 % 1018,0 hPa 0,0 l/m 0,5 km/h (0 Bft) SW 225 -26,0 C 5,6 C 4,3 km/h (1 Bft)
18.10.2019 05:06 14,9 C 5,6 C 6,0 C 65 % 1018,0 hPa 0,0 l/m 0,2 km/h (0 Bft) W 270 -26,0 C 5,6 C 3,6 km/h (1 Bft)
18.10.2019 05:04 14,9 C 5,6 C 6,1 C 65 % 1018,0 hPa 0,0 l/m 0,0 km/h (0 Bft) W-NW 292 -26,0 C 5,6 C 0,0 km/h (0 Bft)
18.10.2019 05:03 14,9 C 5,6 C 6,1 C 65 % 1018,0 hPa 0,0 l/m 0,0 km/h (0 Bft) W-NW 292 -26,0 C 5,6 C 0,0 km/h (0 Bft)
18.10.2019 05:05 14,9 C 5,7 C 5,9 C 65 % 1018,0 hPa 0,0 l/m 0,0 km/h (0 Bft) S 180 -25,9 C 5,7 C 0,0 km/h (0 Bft)
18.10.2019 05:00 14,9 C 5,6 C 6,1 C 65 % 1018,2 hPa 0,0 l/m 0,0 km/h (0 Bft) S 180 -26,0 C 5,6 C 0,0 km/h (0 Bft)
18.10.2019 04:58 14,9 C 5,6 C 5,8 C 65 % 1018,2 hPa 0,0 l/m 0,0 km/h (0 Bft) SW 225 -26,0 C 5,6 C 0,0 km/h (0 Bft)
18.10.2019 04:56 14,9 C 5,6 C 5,9 C 65 % 1018,2 hPa 0,0 l/m 0,2 km/h (0 Bft) W-SW 247 -26,0 C 5,6 C 0,0 km/h (0 Bft)
18.10.2019 04:54 14,9 C 5,6 C 6,0 C 65 % 1018,2 hPa 0,0 l/m 0,2 km/h (0 Bft) W 270 -26,0 C 5,6 C 0,0 km/h (0 Bft)
18.10.2019 04:52 14,9 C 5,6 C 5,6 C 65 % 1018,2 hPa 0,0 l/m 0,2 km/h (0 Bft) NO 45 -26,0 C 5,6 C 0,0 km/h (0 Bft)
18.10.2019 04:50 15,1 C 5,6 C 5,5 C 65 % 1018,2 hPa 0,0 l/m 0,2 km/h (0 Bft) W-SW 247 -26,0 C 5,6 C 0,0 km/h (0 Bft)
18.10.2019 04:48 14,9 C 5,6 C 5,8 C 65 % 1018,2 hPa 0,0 l/m 0,2 km/h (0 Bft) W-SW 247 -26,0 C 5,6 C 0,0 km/h (0 Bft)
18.10.2019 04:46 15,1 C 5,6 C 5,4 C 65 % 1018,2 hPa 0,0 l/m 0,2 km/h (0 Bft) S 180 -26,0 C 5,6 C 2,7 km/h (1 Bft)
18.10.2019 04:44 14,9 C 5,5 C 5,9 C 65 % 1018,2 hPa 0,0 l/m 0,0 km/h (0 Bft) S-SW 202 -26,1 C 5,5 C 0,0 km/h (0 Bft)
18.10.2019 04:42 15,1 C 5,6 C 5,8 C 65 % 1018,2 hPa 0,0 l/m 0,0 km/h (0 Bft) S-SW 202 -26,0 C 5,6 C 0,0 km/h (0 Bft)
18.10.2019 04:40 15,1 C 5,6 C 5,4 C 65 % 1018,1 hPa 0,0 l/m 0,0 km/h (0 Bft) W 270 -26,0 C 5,6 C 0,0 km/h (0 Bft)
18.10.2019 04:38 15,1 C 5,6 C 5,4 C 65 % 1018,1 hPa 0,0 l/m 0,0 km/h (0 Bft) SW 225 -26,0 C 5,6 C 0,0 km/h (0 Bft)
18.10.2019 04:36 15,1 C 5,6 C 5,6 C 65 % 1018,1 hPa 0,0 l/m 0,0 km/h (0 Bft) W-SW 247 -26,0 C 5,6 C 0,0 km/h (0 Bft)
18.10.2019 04:34 15,1 C 5,6 C 6,1 C 65 % 1018,1 hPa 0,0 l/m 0,0 km/h (0 Bft) S 180 -26,0 C 5,6 C 0,0 km/h (0 Bft)
18.10.2019 04:32 15,1 C 5,7 C 6,0 C 65 % 1018,1 hPa 0,0 l/m 0,0 km/h (0 Bft) NO 45 -25,9 C 5,7 C 0,0 km/h (0 Bft)
18.10.2019 04:30 15,1 C 5,7 C 5,8 C 65 % 1018,1 hPa 0,0 l/m 0,0 km/h (0 Bft) NO 45 -25,9 C 5,7 C 0,0 km/h (0 Bft)
18.10.2019 04:28 15,1 C 5,7 C 5,8 C 65 % 1018,1 hPa 0,0 l/m 0,0 km/h (0 Bft) N 360 -25,9 C 5,7 C 0,0 km/h (0 Bft)
18.10.2019 04:26 15,1 C 5,7 C 5,9 C 65 % 1018,1 hPa 0,0 l/m 0,0 km/h (0 Bft) S 180 -25,9 C 5,7 C 0,0 km/h (0 Bft)
18.10.2019 04:24 15,1 C 5,7 C 5,9 C 65 % 1018,1 hPa 0,0 l/m 0,0 km/h (0 Bft) S-SO 157 -25,9 C 5,7 C 0,0 km/h (0 Bft)
18.10.2019 04:22 15,1 C 5,7 C 6,1 C 65 % 1018,1 hPa 0,0 l/m 0,0 km/h (0 Bft) S-SW 202 -25,9 C 5,7 C 0,0 km/h (0 Bft)
18.10.2019 04:20 15,1 C 5,7 C 6,1 C 65 % 1018,1 hPa 0,0 l/m 0,0 km/h (0 Bft) N-NO 22 -25,9 C 5,7 C 0,0 km/h (0 Bft)
18.10.2019 04:18 15,1 C 5,8 C 6,0 C 65 % 1018,1 hPa 0,0 l/m 0,0 km/h (0 Bft) SW 225 -25,9 C 5,8 C 0,0 km/h (0 Bft)
18.10.2019 04:16 15,1 C 5,7 C 6,4 C 65 % 1018,1 hPa 0,0 l/m 0,0 km/h (0 Bft) S 180 -25,9 C 5,7 C 0,0 km/h (0 Bft)
18.10.2019 04:14 15,1 C 5,7 C 6,2 C 65 % 1018,1 hPa 0,0 l/m 0,0 km/h (0 Bft) SW 225 -25,9 C 5,7 C 0,0 km/h (0 Bft)
18.10.2019 04:12 15,1 C 5,8 C 6,2 C 65 % 1018,1 hPa 0,0 l/m 0,0 km/h (0 Bft) SW 225 -25,9 C 5,8 C 0,0 km/h (0 Bft)
18.10.2019 04:10 15,1 C 5,8 C 6,0 C 65 % 1018,1 hPa 0,0 l/m 0,0 km/h (0 Bft) S 180 -25,9 C 5,8 C 0,0 km/h (0 Bft)
18.10.2019 04:08 15,1 C 5,8 C 6,1 C 65 % 1018,1 hPa 0,0 l/m 0,2 km/h (0 Bft) SW 225 -25,9 C 5,8 C 0,0 km/h (0 Bft)
18.10.2019 04:06 15,1 C 5,8 C 6,2 C 65 % 1018,1 hPa 0,0 l/m 0,2 km/h (0 Bft) S-SW 202 -25,9 C 5,8 C 0,0 km/h (0 Bft)
18.10.2019 04:04 15,1 C 5,8 C 5,9 C 65 % 1018,1 hPa 0,0 l/m 0,2 km/h (0 Bft) W 270 -25,9 C 5,8 C 0,0 km/h (0 Bft)
18.10.2019 04:02 15,1 C 5,9 C 6,2 C 65 % 1018,1 hPa 0,0 l/m 0,3 km/h (0 Bft) W-SW 247 -25,8 C 5,9 C 0,0 km/h (0 Bft)
18.10.2019 04:00 15,1 C 5,9 C 6,2 C 65 % 1017,9 hPa 0,0 l/m 0,3 km/h (0 Bft) W-SW 247 -25,8 C 5,9 C 0,0 km/h (0 Bft)
18.10.2019 03:58 15,1 C 5,9 C 6,3 C 65 % 1017,9 hPa 0,0 l/m 0,3 km/h (0 Bft) O-NO 67 -25,8 C 5,9 C 3,1 km/h (1 Bft)
18.10.2019 03:56 15,1 C 5,9 C 6,3 C 65 % 1017,9 hPa 0,0 l/m 0,3 km/h (0 Bft) W-SW 247 -25,8 C 5,9 C 0,0 km/h (0 Bft)
18.10.2019 03:54 15,1 C 5,9 C 6,5 C 65 % 1017,9 hPa 0,0 l/m 0,3 km/h (0 Bft) SW 225 -25,8 C 5,9 C 0,0 km/h (0 Bft)
18.10.2019 03:52 15,1 C 5,9 C 6,3 C 65 % 1017,9 hPa 0,0 l/m 0,6 km/h (0 Bft) N-NO 22 -25,8 C 5,9 C 2,7 km/h (1 Bft)
18.10.2019 03:50 15,1 C 5,9 C 6,2 C 65 % 1017,9 hPa 0,0 l/m 0,3 km/h (0 Bft) W-SW 247 -25,8 C 5,9 C 0,0 km/h (0 Bft)
18.10.2019 03:48 15,1 C 5,9 C 6,3 C 65 % 1017,9 hPa 0,0 l/m 0,3 km/h (0 Bft) SW 225 -25,8 C 5,9 C 0,0 km/h (0 Bft)
18.10.2019 03:46 15,1 C 5,9 C 6,3 C 65 % 1017,9 hPa 0,0 l/m 0,3 km/h (0 Bft) S 180 -25,8 C 5,9 C 0,0 km/h (0 Bft)
18.10.2019 03:44 15,2 C 5,9 C 6,3 C 65 % 1017,9 hPa 0,0 l/m 0,2 km/h (0 Bft) S-SW 202 -25,8 C 5,9 C 2,4 km/h (1 Bft)
18.10.2019 03:42 15,2 C 5,9 C 6,3 C 65 % 1017,9 hPa 0,0 l/m 0,0 km/h (0 Bft) S-SW 202 -25,8 C 5,9 C 0,0 km/h (0 Bft)
18.10.2019 03:40 15,1 C 5,9 C 6,3 C 65 % 1018,0 hPa 0,0 l/m 0,0 km/h (0 Bft) W-NW 292 -25,8 C 5,9 C 0,0 km/h (0 Bft)
18.10.2019 03:38 15,1 C 5,9 C 6,4 C 65 % 1018,0 hPa 0,0 l/m 0,0 km/h (0 Bft) S-SO 157 -25,8 C 5,9 C 0,0 km/h (0 Bft)
18.10.2019 03:36 15,1 C 5,9 C 6,4 C 65 % 1018,0 hPa 0,0 l/m 0,0 km/h (0 Bft) S-SW 202 -25,8 C 5,9 C 0,0 km/h (0 Bft)
18.10.2019 03:34 15,2 C 5,9 C 6,4 C 65 % 1018,0 hPa 0,0 l/m 0,0 km/h (0 Bft) S 180 -25,8 C 5,9 C 0,0 km/h (0 Bft)
18.10.2019 03:32 15,2 C 5,9 C 6,4 C 65 % 1018,0 hPa 0,0 l/m 0,2 km/h (0 Bft) W-SW 247 -25,8 C 5,9 C 0,0 km/h (0 Bft)
18.10.2019 03:30 15,2 C 5,9 C 6,5 C 65 % 1018,0 hPa 0,0 l/m 0,2 km/h (0 Bft) N-NO 22 -25,8 C 5,9 C 0,0 km/h (0 Bft)
18.10.2019 03:28 15,2 C 5,9 C 6,7 C 65 % 1018,0 hPa 0,0 l/m 0,2 km/h (0 Bft) SW 225 -25,8 C 5,9 C 0,0 km/h (0 Bft)
18.10.2019 03:26 15,2 C 5,9 C 6,5 C 65 % 1018,0 hPa 0,0 l/m 0,2 km/h (0 Bft) SW 225 -25,8 C 5,9 C 0,0 km/h (0 Bft)
18.10.2019 03:24 15,1 C 5,9 C 6,6 C 65 % 1018,0 hPa 0,0 l/m 0,2 km/h (0 Bft) O-NO 67 -25,8 C 5,9 C 0,0 km/h (0 Bft)
18.10.2019 03:22 15,2 C 5,9 C 6,4 C 65 % 1018,0 hPa 0,0 l/m 0,2 km/h (0 Bft) NW 315 -25,8 C 5,9 C 3,6 km/h (1 Bft)
18.10.2019 03:20 15,2 C 5,9 C 6,1 C 65 % 1018,1 hPa 0,0 l/m 0,2 km/h (0 Bft) W-SW 247 -25,8 C 5,9 C 0,0 km/h (0 Bft)
18.10.2019 03:18 15,2 C 5,9 C 6,3 C 65 % 1018,1 hPa 0,0 l/m 0,2 km/h (0 Bft) W-NW 292 -25,8 C 5,9 C 0,0 km/h (0 Bft)
18.10.2019 03:16 15,2 C 5,9 C 6,2 C 65 % 1018,1 hPa 0,0 l/m 0,2 km/h (0 Bft) S-SO 157 -25,8 C 5,9 C 0,0 km/h (0 Bft)
18.10.2019 03:14 15,2 C 5,9 C 6,3 C 65 % 1018,1 hPa 0,0 l/m 0,2 km/h (0 Bft) SW 225 -25,8 C 5,9 C 0,0 km/h (0 Bft)
18.10.2019 03:12 15,2 C 5,8 C 6,3 C 65 % 1018,1 hPa 0,0 l/m 0,2 km/h (0 Bft) O-SO 112 -25,9 C 5,8 C 2,7 km/h (1 Bft)
18.10.2019 03:10 15,2 C 5,9 C 6,3 C 65 % 1018,1 hPa 0,0 l/m 0,0 km/h (0 Bft) SW 225 -25,8 C 5,9 C 3,4 km/h (1 Bft)
18.10.2019 03:08 15,2 C 5,9 C 5,9 C 65 % 1018,1 hPa 0,0 l/m 0,0 km/h (0 Bft) S-SW 202 -25,8 C 5,9 C 0,0 km/h (0 Bft)
18.10.2019 03:06 15,2 C 5,9 C 6,0 C 65 % 1018,1 hPa 0,0 l/m 0,0 km/h (0 Bft) W-SW 247 -25,8 C 5,9 C 0,0 km/h (0 Bft)
18.10.2019 03:04 15,2 C 5,9 C 6,0 C 65 % 1018,1 hPa 0,0 l/m 0,0 km/h (0 Bft) W-SW 247 -25,8 C 5,9 C 0,0 km/h (0 Bft)
18.10.2019 03:02 15,2 C 5,9 C 6,0 C 65 % 1018,1 hPa 0,0 l/m 0,0 km/h (0 Bft) S 180 -25,8 C 5,9 C 0,0 km/h (0 Bft)
18.10.2019 03:00 15,2 C 5,9 C 6,0 C 65 % 1018,2 hPa 0,0 l/m 0,0 km/h (0 Bft) SW 225 -25,8 C 5,9 C 0,0 km/h (0 Bft)
18.10.2019 02:58 15,2 C 5,9 C 6,2 C 65 % 1018,2 hPa 0,0 l/m 0,0 km/h (0 Bft) SW 225 -25,8 C 5,9 C 0,0 km/h (0 Bft)
18.10.2019 02:56 15,2 C 6,0 C 6,1 C 65 % 1018,2 hPa 0,0 l/m 0,0 km/h (0 Bft) S 180 -25,7 C 6,0 C 0,0 km/h (0 Bft)
18.10.2019 02:54 15,2 C 6,0 C 6,1 C 65 % 1018,2 hPa 0,0 l/m 0,2 km/h (0 Bft) SW 225 -25,7 C 6,0 C 0,0 km/h (0 Bft)
18.10.2019 02:52 15,2 C 5,9 C 6,0 C 65 % 1018,2 hPa 0,0 l/m 0,2 km/h (0 Bft) S 180 -25,8 C 5,9 C 0,0 km/h (0 Bft)
18.10.2019 02:50 15,2 C 5,9 C 5,9 C 65 % 1018,2 hPa 0,0 l/m 0,2 km/h (0 Bft) S-SW 202 -25,8 C 5,9 C 0,0 km/h (0 Bft)
18.10.2019 02:48 15,2 C 5,9 C 6,0 C 65 % 1018,2 hPa 0,0 l/m 0,2 km/h (0 Bft) SW 225 -25,8 C 5,9 C 0,0 km/h (0 Bft)
18.10.2019 02:46 15,2 C 5,9 C 5,9 C 65 % 1018,2 hPa 0,0 l/m 0,2 km/h (0 Bft) S-SO 157 -25,8 C 5,9 C 0,0 km/h (0 Bft)
18.10.2019 02:44 15,2 C 6,0 C 5,9 C 65 % 1018,2 hPa 0,0 l/m 0,0 km/h (0 Bft) SW 225 -25,7 C 6,0 C 2,9 km/h (1 Bft)
18.10.2019 02:42 15,2 C 6,0 C 6,3 C 65 % 1018,2 hPa 0,0 l/m 0,0 km/h (0 Bft) S 180 -25,7 C 6,0 C 0,0 km/h (0 Bft)
18.10.2019 02:40 15,2 C 6,0 C 6,2 C 65 % 1018,2 hPa 0,0 l/m 0,0 km/h (0 Bft) S-SW 202 -25,7 C 6,0 C 0,0 km/h (0 Bft)
18.10.2019 02:38 15,2 C 6,0 C 6,2 C 65 % 1018,2 hPa 0,0 l/m 0,0 km/h (0 Bft) SW 225 -25,7 C 6,0 C 0,0 km/h (0 Bft)
18.10.2019 02:36 15,1 C 6,0 C 6,0 C 65 % 1018,2 hPa 0,0 l/m 0,0 km/h (0 Bft) SW 225 -25,7 C 6,0 C 0,0 km/h (0 Bft)
18.10.2019 02:34 15,2 C 6,0 C 6,0 C 65 % 1018,2 hPa 0,0 l/m 0,0 km/h (0 Bft) W-SW 247 -25,7 C 6,0 C 0,0 km/h (0 Bft)
18.10.2019 02:32 15,1 C 6,1 C 5,9 C 65 % 1018,2 hPa 0,0 l/m 0,0 km/h (0 Bft) W-SW 247 -25,6 C 6,1 C 0,0 km/h (0 Bft)
18.10.2019 02:30 15,1 C 6,1 C 6,1 C 65 % 1018,2 hPa 0,0 l/m 0,0 km/h (0 Bft) SW 225 -25,6 C 6,1 C 0,0 km/h (0 Bft)
18.10.2019 02:28 15,1 C 6,1 C 6,3 C 65 % 1018,2 hPa 0,0 l/m 0,0 km/h (0 Bft) SW 225 -25,6 C 6,1 C 0,0 km/h (0 Bft)
18.10.2019 02:26 15,1 C 6,1 C 6,3 C 65 % 1018,2 hPa 0,0 l/m 0,0 km/h (0 Bft) SW 225 -25,6 C 6,1 C 0,0 km/h (0 Bft)
18.10.2019 02:24 15,2 C 6,1 C 6,3 C 65 % 1018,2 hPa 0,0 l/m 0,0 km/h (0 Bft) NO 45 -25,6 C 6,1 C 0,0 km/h (0 Bft)
18.10.2019 02:22 15,1 C 6,2 C 6,4 C 65 % 1018,2 hPa 0,0 l/m 0,0 km/h (0 Bft) N-NW 337 -25,6 C 6,2 C 0,0 km/h (0 Bft)
18.10.2019 02:20 15,1 C 6,2 C 6,4 C 65 % 1018,4 hPa 0,0 l/m 0,0 km/h (0 Bft) S 180 -25,6 C 6,2 C 0,0 km/h (0 Bft)
18.10.2019 02:18 15,1 C 6,2 C 6,5 C 65 % 1018,4 hPa 0,0 l/m 0,0 km/h (0 Bft) SW 225 -25,6 C 6,2 C 0,0 km/h (0 Bft)
18.10.2019 02:16 15,1 C 6,2 C 6,7 C 65 % 1018,4 hPa 0,0 l/m 0,0 km/h (0 Bft) W-NW 292 -25,6 C 6,2 C 0,0 km/h (0 Bft)
18.10.2019 02:14 15,1 C 6,2 C 6,6 C 65 % 1018,4 hPa 0,0 l/m 0,0 km/h (0 Bft) W-NW 292 -25,6 C 6,2 C 0,0 km/h (0 Bft)
18.10.2019 02:12 15,1 C 6,2 C 6,7 C 65 % 1018,4 hPa 0,0 l/m 0,0 km/h (0 Bft) N-NO 22 -25,6 C 6,2 C 0,0 km/h (0 Bft)
18.10.2019 02:10 15,1 C 6,2 C 6,6 C 65 % 1018,4 hPa 0,0 l/m 0,2 km/h (0 Bft) W-SW 247 -25,6 C 6,2 C 0,0 km/h (0 Bft)
18.10.2019 02:08 15,1 C 6,2 C 6,5 C 65 % 1018,4 hPa 0,0 l/m 0,2 km/h (0 Bft) O-NO 67 -25,6 C 6,2 C 0,0 km/h (0 Bft)
18.10.2019 02:06 15,1 C 6,2 C 6,2 C 65 % 1018,4 hPa 0,0 l/m 0,2 km/h (0 Bft) S 180 -25,6 C 6,2 C 2,7 km/h (1 Bft)
18.10.2019 02:04 15,1 C 6,2 C 6,1 C 65 % 1018,4 hPa 0,0 l/m 0,0 km/h (0 Bft) S 180 -25,6 C 6,2 C 0,0 km/h (0 Bft)
18.10.2019 02:02 15,1 C 6,2 C 6,0 C 65 % 1018,4 hPa 0,0 l/m 0,0 km/h (0 Bft) SW 225 -25,6 C 6,2 C 0,0 km/h (0 Bft)
18.10.2019 02:00 15,1 C 6,2 C 6,2 C 65 % 1018,3 hPa 0,0 l/m 0,0 km/h (0 Bft) SW 225 -25,6 C 6,2 C 2,9 km/h (1 Bft)
18.10.2019 01:58 15,1 C 6,2 C 6,1 C 65 % 1018,3 hPa 0,0 l/m 0,0 km/h (0 Bft) SW 225 -25,6 C 6,2 C 0,0 km/h (0 Bft)
18.10.2019 01:56 15,1 C 6,2 C 6,0 C 65 % 1018,3 hPa 0,0 l/m 0,0 km/h (0 Bft) W-SW 247 -25,6 C 6,2 C 0,0 km/h (0 Bft)
18.10.2019 01:54 15,1 C 6,2 C 6,0 C 65 % 1018,3 hPa 0,0 l/m 0,0 km/h (0 Bft) W-SW 247 -25,6 C 6,2 C 0,0 km/h (0 Bft)
18.10.2019 01:52 15,1 C 6,2 C 5,8 C 65 % 1018,3 hPa 0,0 l/m 0,0 km/h (0 Bft) S-SO 157 -25,6 C 6,2 C 0,0 km/h (0 Bft)
18.10.2019 01:50 15,3 C 6,2 C 5,8 C 65 % 1018,3 hPa 0,0 l/m 0,0 km/h (0 Bft) S-SO 157 -25,6 C 6,2 C 0,0 km/h (0 Bft)
18.10.2019 01:48 15,3 C 6,3 C 6,0 C 65 % 1018,3 hPa 0,0 l/m 0,0 km/h (0 Bft) S-SO 157 -25,5 C 6,3 C 0,0 km/h (0 Bft)
18.10.2019 01:46 15,3 C 6,3 C 5,9 C 65 % 1018,3 hPa 0,0 l/m 0,0 km/h (0 Bft) SO 135 -25,5 C 6,3 C 0,0 km/h (0 Bft)
18.10.2019 01:44 15,3 C 6,2 C 6,0 C 65 % 1018,3 hPa 0,0 l/m 0,0 km/h (0 Bft) S 180 -25,6 C 6,2 C 0,0 km/h (0 Bft)
18.10.2019 01:42 15,3 C 6,3 C 6,3 C 65 % 1018,3 hPa 0,0 l/m 0,0 km/h (0 Bft) S-SO 157 -25,5 C 6,3 C 0,0 km/h (0 Bft)
18.10.2019 01:40 15,3 C 6,3 C 6,4 C 65 % 1018,1 hPa 0,0 l/m 0,0 km/h (0 Bft) S-SO 157 -25,5 C 6,3 C 0,0 km/h (0 Bft)
18.10.2019 01:38 15,3 C 6,4 C 6,4 C 65 % 1018,1 hPa 0,0 l/m 0,0 km/h (0 Bft) S-SO 157 -25,4 C 6,4 C 0,0 km/h (0 Bft)
18.10.2019 01:36 15,2 C 6,3 C 6,3 C 65 % 1018,1 hPa 0,0 l/m 0,0 km/h (0 Bft) S-SO 157 -25,5 C 6,3 C 0,0 km/h (0 Bft)
18.10.2019 01:34 15,3 C 6,3 C 6,3 C 65 % 1018,1 hPa 0,0 l/m 0,0 km/h (0 Bft) W-SW 247 -25,5 C 6,3 C 0,0 km/h (0 Bft)
18.10.2019 01:32 15,3 C 6,3 C 6,3 C 65 % 1018,1 hPa 0,0 l/m 0,0 km/h (0 Bft) S-SO 157 -25,5 C 6,3 C 0,0 km/h (0 Bft)
18.10.2019 01:30 15,3 C 6,3 C 6,3 C 65 % 1018,1 hPa 0,0 l/m 0,2 km/h (0 Bft) SW 225 -25,5 C 6,3 C 0,0 km/h (0 Bft)
18.10.2019 01:28 15,3 C 6,4 C 6,3 C 65 % 1018,1 hPa 0,0 l/m 0,2 km/h (0 Bft) S-SW 202 -25,4 C 6,4 C 0,0 km/h (0 Bft)
18.10.2019 01:26 15,3 C 6,4 C 6,2 C 65 % 1018,1 hPa 0,0 l/m 0,5 km/h (0 Bft) SW 225 -25,4 C 6,4 C 0,0 km/h (0 Bft)
18.10.2019 01:24 15,2 C 6,4 C 6,1 C 65 % 1018,1 hPa 0,0 l/m 0,5 km/h (0 Bft) SW 225 -25,4 C 6,4 C 2,9 km/h (1 Bft)
18.10.2019 01:22 15,2 C 6,4 C 6,2 C 65 % 1018,1 hPa 0,0 l/m 0,5 km/h (0 Bft) W-SW 247 -25,4 C 6,4 C 0,0 km/h (0 Bft)
18.10.2019 01:20 15,2 C 6,4 C 6,3 C 65 % 1018,1 hPa 0,0 l/m 0,5 km/h (0 Bft) W-SW 247 -25,4 C 6,4 C 3,4 km/h (1 Bft)
18.10.2019 01:18 15,3 C 6,4 C 6,5 C 65 % 1018,1 hPa 0,0 l/m 0,5 km/h (0 Bft) S 180 -25,4 C 6,4 C 0,0 km/h (0 Bft)
18.10.2019 01:16 15,3 C 6,4 C 6,1 C 65 % 1018,1 hPa 0,0 l/m 0,3 km/h (0 Bft) SW 225 -25,4 C 6,4 C 3,1 km/h (1 Bft)
18.10.2019 01:14 15,2 C 6,4 C 6,1 C 65 % 1018,1 hPa 0,0 l/m 0,2 km/h (0 Bft) W-SW 247 -25,4 C 6,4 C 0,0 km/h (0 Bft)
18.10.2019 01:12 15,2 C 6,4 C 6,0 C 65 % 1018,1 hPa 0,0 l/m 0,2 km/h (0 Bft) SW 225 -25,4 C 6,4 C 3,1 km/h (1 Bft)
18.10.2019 01:10 15,2 C 6,4 C 5,9 C 65 % 1018,1 hPa 0,0 l/m 0,0 km/h (0 Bft) S-SW 202 -25,4 C 6,4 C 0,0 km/h (0 Bft)
18.10.2019 01:08 15,2 C 6,3 C 6,0 C 65 % 1018,1 hPa 0,0 l/m 0,0 km/h (0 Bft) S 180 -25,5 C 6,3 C 0,0 km/h (0 Bft)
18.10.2019 01:06 15,2 C 6,4 C 6,3 C 65 % 1018,1 hPa 0,0 l/m 0,0 km/h (0 Bft) W-SW 247 -25,4 C 6,4 C 0,0 km/h (0 Bft)
18.10.2019 01:04 15,2 C 6,4 C 6,2 C 65 % 1018,1 hPa 0,0 l/m 0,0 km/h (0 Bft) SW 225 -25,4 C 6,4 C 0,0 km/h (0 Bft)
18.10.2019 01:02 15,2 C 6,4 C 6,3 C 65 % 1018,1 hPa 0,0 l/m 0,0 km/h (0 Bft) S 180 -25,4 C 6,4 C 0,0 km/h (0 Bft)
18.10.2019 01:00 15,2 C 6,4 C 6,1 C 65 % 1017,6 hPa 0,0 l/m 0,0 km/h (0 Bft) W-SW 247 -25,4 C 6,4 C 0,0 km/h (0 Bft)
18.10.2019 00:58 15,2 C 6,5 C 6,4 C 65 % 1017,6 hPa 0,0 l/m 0,0 km/h (0 Bft) S-SO 157 -25,3 C 6,5 C 0,0 km/h (0 Bft)
18.10.2019 00:56 15,2 C 6,5 C 6,2 C 65 % 1017,6 hPa 0,0 l/m 0,0 km/h (0 Bft) SW 225 -25,3 C 6,5 C 0,0 km/h (0 Bft)
18.10.2019 00:54 15,2 C 6,5 C 6,1 C 65 % 1017,6 hPa 0,0 l/m 0,0 km/h (0 Bft) SW 225 -25,3 C 6,5 C 0,0 km/h (0 Bft)
18.10.2019 00:52 15,2 C 6,5 C 6,0 C 65 % 1017,6 hPa 0,0 l/m 0,0 km/h (0 Bft) W-SW 247 -25,3 C 6,5 C 0,0 km/h (0 Bft)
18.10.2019 00:50 15,2 C 6,5 C 6,1 C 65 % 1017,6 hPa 0,0 l/m 0,0 km/h (0 Bft) W-SW 247 -25,3 C 6,5 C 0,0 km/h (0 Bft)
18.10.2019 00:48 15,2 C 6,5 C 6,0 C 65 % 1017,6 hPa 0,0 l/m 0,0 km/h (0 Bft) W-SW 247 -25,3 C 6,5 C 0,0 km/h (0 Bft)
18.10.2019 00:46 15,2 C 6,5 C 6,0 C 65 % 1017,6 hPa 0,0 l/m 0,0 km/h (0 Bft) W-SW 247 -25,3 C 6,5 C 0,0 km/h (0 Bft)
18.10.2019 00:44 15,2 C 6,5 C 5,9 C 65 % 1017,6 hPa 0,0 l/m 0,0 km/h (0 Bft) W-SW 247 -25,3 C 6,5 C 0,0 km/h (0 Bft)
18.10.2019 00:42 15,2 C 6,5 C 5,9 C 65 % 1017,6 hPa 0,0 l/m 0,0 km/h (0 Bft) W-NW 292 -25,3 C 6,5 C 0,0 km/h (0 Bft)
18.10.2019 00:40 15,2 C 6,5 C 6,0 C 65 % 1017,6 hPa 0,0 l/m 0,0 km/h (0 Bft) W-NW 292 -25,3 C 6,5 C 0,0 km/h (0 Bft)
18.10.2019 00:38 15,2 C 6,5 C 6,1 C 65 % 1017,6 hPa 0,0 l/m 0,0 km/h (0 Bft) S 180 -25,3 C 6,5 C 0,0 km/h (0 Bft)
18.10.2019 00:36 15,2 C 6,6 C 5,9 C 65 % 1017,6 hPa 0,0 l/m 0,0 km/h (0 Bft) S 180 -25,3 C 6,6 C 0,0 km/h (0 Bft)
18.10.2019 00:34 15,4 C 6,6 C 5,9 C 65 % 1017,6 hPa 0,0 l/m 0,0 km/h (0 Bft) S 180 -25,3 C 6,6 C 0,0 km/h (0 Bft)
18.10.2019 00:32 15,4 C 6,6 C 6,0 C 65 % 1017,6 hPa 0,0 l/m 0,0 km/h (0 Bft) S 180 -25,3 C 6,6 C 0,0 km/h (0 Bft)
18.10.2019 00:30 15,2 C 6,6 C 5,9 C 65 % 1017,6 hPa 0,0 l/m 0,0 km/h (0 Bft) SW 225 -25,3 C 6,6 C 0,0 km/h (0 Bft)
18.10.2019 00:28 15,4 C 6,6 C 5,9 C 65 % 1017,6 hPa 0,0 l/m 0,0 km/h (0 Bft) SW 225 -25,3 C 6,6 C 0,0 km/h (0 Bft)
18.10.2019 00:26 15,4 C 6,6 C 5,8 C 65 % 1017,6 hPa 0,0 l/m 0,0 km/h (0 Bft) S-SW 202 -25,3 C 6,6 C 0,0 km/h (0 Bft)
18.10.2019 00:24 15,4 C 6,6 C 6,0 C 65 % 1017,6 hPa 0,0 l/m 0,0 km/h (0 Bft) S-SW 202 -25,3 C 6,6 C 0,0 km/h (0 Bft)
18.10.2019 00:22 15,4 C 6,7 C 5,9 C 65 % 1017,6 hPa 0,0 l/m 0,0 km/h (0 Bft) S-SW 202 -25,2 C 6,7 C 0,0 km/h (0 Bft)
18.10.2019 00:20 15,4 C 6,7 C 5,7 C 65 % 1017,9 hPa 0,0 l/m 0,0 km/h (0 Bft) S 180 -25,2 C 6,7 C 0,0 km/h (0 Bft)
18.10.2019 00:18 15,4 C 6,7 C 5,8 C 65 % 1017,9 hPa 0,0 l/m 0,0 km/h (0 Bft) S-SW 202 -25,2 C 6,7 C 0,0 km/h (0 Bft)
18.10.2019 00:16 15,4 C 6,7 C 6,0 C 65 % 1017,9 hPa 0,0 l/m 0,0 km/h (0 Bft) S 180 -25,2 C 6,7 C 0,0 km/h (0 Bft)
18.10.2019 00:14 15,4 C 6,8 C 5,9 C 65 % 1017,9 hPa 0,0 l/m 0,0 km/h (0 Bft) SW 225 -25,1 C 6,8 C 0,0 km/h (0 Bft)
18.10.2019 00:12 15,4 C 6,8 C 6,0 C 65 % 1017,9 hPa 0,0 l/m 0,0 km/h (0 Bft) S 180 -25,1 C 6,8 C 0,0 km/h (0 Bft)
18.10.2019 00:10 15,4 C 6,8 C 5,9 C 65 % 1017,9 hPa 0,0 l/m 0,0 km/h (0 Bft) S-SW 202 -25,1 C 6,8 C 0,0 km/h (0 Bft)
18.10.2019 00:08 15,4 C 6,8 C 6,1 C 65 % 1017,9 hPa 0,0 l/m 0,0 km/h (0 Bft) SW 225 -25,1 C 6,8 C 0,0 km/h (0 Bft)
18.10.2019 00:06 15,4 C 6,8 C 6,3 C 65 % 1017,9 hPa 0,0 l/m 0,0 km/h (0 Bft) SW 225 -25,1 C 6,8 C 0,0 km/h (0 Bft)
18.10.2019 00:04 15,4 C 6,9 C 6,3 C 65 % 1017,9 hPa 0,0 l/m 0,0 km/h (0 Bft) SW 225 -25,0 C 6,9 C 0,0 km/h (0 Bft)
18.10.2019 00:02 15,4 C 6,9 C 6,1 C 65 % 1017,9 hPa 0,0 l/m 0,0 km/h (0 Bft) NO 45 -25,0 C 6,9 C 0,0 km/h (0 Bft)
18.10.2019 00:00 15,4 C 6,9 C 6,5 C 65 % 1017,7 hPa 0,0 l/m 0,0 km/h (0 Bft) NO 45 -25,0 C 6,9 C 0,0 km/h (0 Bft)
_ Min-Zeit 06:10 07:34 07:22 07:56 00:22 - 00:00 - - 07:34 07:34 00:00
Minimum _ 14,8 C 5,0 C 4,8 C 64 % 1017,6 hPa - 0,0 km/h (0 Bft) - - -26,5 C 5,0 C 0,0 km/h (0 Bft)
_ Max-Zeit 00:00 10:44 10:42 00:00 09:42 00:00 08:38 - - 10:44 10:44 05:18
Maximum _ 15,4 C 11,9 C 10,5 C 65 % 1018,6 hPa 0,0 l/m 1,4 km/h
S-SO (1 Bft)
- - -21,3 C 11,9 C 5,1 km/h
SW (1 Bft)
Durchschnitt _ 15,0 C 6,3 C 6,4 C 65 % 1018,1 hPa #0,0 l/m 0,1 km/h (0 Bft) SW - -25,4 C 6,3 C 0,3 km/h (0 Bft)